When you browse on this site, cookies collect data to enhance your experience and personalize the content and advertising you see.
Visit our Privacy Policy to learn more. By continuing to use the site, you agree to this use of cookies and data.
  • In Hungary
  • List of Countries
  • For 7 days
  • Water Temperature
  • Satellite Maps
  • Weather Map
  • News
  • Weather Widgets
  • user-avatar
    Login

    Hourly Weather Bolshie Shali

    Today, 20 November, Tuesday

    Time Temperature Precipitation Wind Pressure Humidity
    00:00 -4°C° 0 mm 3 mps 750 mmHg 91%
    01:00 -4°C° 0 mm 3 mps 750 mmHg 91%
    02:00 -5°C° 0 mm 3 mps 750 mmHg 91%
    03:00 -5°C° 0 mm 3 mps 750 mmHg 91%
    04:00 -5°C° 0 mm 3 mps 750 mmHg 91%
    05:00 -5°C° 0 mm 2 mps 750 mmHg 91%
    06:00 -5°C° 0 mm 2 mps 749 mmHg 92%
    07:00 -5°C° 0 mm 2 mps 749 mmHg 90%
    08:00 -5°C° 0 mm 2 mps 749 mmHg 89%
    09:00 -5°C° 0 mm 2 mps 749 mmHg 87%
    10:00 -4°C° 0 mm 2 mps 749 mmHg 85%
    11:00 -4°C° 0 mm 2 mps 749 mmHg 82%
    12:00 -4°C° 0 mm 2 mps 748 mmHg 79%
    13:00 -4°C° 0 mm 2 mps 748 mmHg 79%
    14:00 -4°C° 0 mm 2 mps 747 mmHg 79%
    15:00 -4°C° 0 mm 2 mps 747 mmHg 79%
    16:00 -4°C° 0 mm 2 mps 746 mmHg 80%
    17:00 -4°C° 0 mm 2 mps 746 mmHg 81%
    18:00 -5°C° 0 mm 3 mps 746 mmHg 82%
    19:00 -5°C° 0.1 mm 3 mps 745 mmHg 84%
    20:00 -5°C° 0.1 mm 3 mps 744 mmHg 85%
    21:00 -5°C° 0.1 mm 4 mps 744 mmHg 87%
    22:00 -5°C° 0.1 mm 4 mps 743 mmHg 86%
    23:00 -5°C° 0.1 mm 4 mps 742 mmHg 85%

    Tomorrow, 21 November, Wednesday

    Time Temperature Precipitation Wind Pressure Humidity
    00:00 -6°C° 0.1 mm 5 mps 741 mmHg 84%
    01:00 -7°C° 0 mm 5 mps 741 mmHg 84%
    02:00 -7°C° 0 mm 5 mps 740 mmHg 83%
    03:00 -7°C° 0 mm 5 mps 740 mmHg 82%
    04:00 -7°C° 0.1 mm 5 mps 739 mmHg 83%
    05:00 -7°C° 0.1 mm 5 mps 738 mmHg 84%
    06:00 -6°C° 0.1 mm 5 mps 738 mmHg 85%
    07:00 -6°C° 0.1 mm 5 mps 737 mmHg 84%
    08:00 -5°C° 0.1 mm 5 mps 737 mmHg 83%
    09:00 -5°C° 0.1 mm 5 mps 737 mmHg 82%
    10:00 -5°C° 0.1 mm 6 mps 736 mmHg 77%
    11:00 -6°C° 0.1 mm 7 mps 736 mmHg 71%
    12:00 -6°C° 0.1 mm 7 mps 736 mmHg 66%
    13:00 -6°C° 0.1 mm 7 mps 736 mmHg 68%
    14:00 -7°C° 0.1 mm 7 mps 737 mmHg 71%
    15:00 -8°C° 0.1 mm 7 mps 737 mmHg 73%
    16:00 -8°C° 0 mm 7 mps 737 mmHg 72%
    17:00 -8°C° 0 mm 6 mps 737 mmHg 72%
    18:00 -9°C° 0 mm 6 mps 738 mmHg 72%
    19:00 -9°C° 0 mm 6 mps 738 mmHg 72%
    20:00 -9°C° 0 mm 6 mps 738 mmHg 73%
    21:00 -10°C° 0 mm 6 mps 738 mmHg 73%
    22:00 -10°C° 0 mm 5 mps 738 mmHg 75%
    23:00 -10°C° 0 mm 5 mps 738 mmHg 77%

    Day after tomorrow, 22 November, Thursday

    Time Temperature Precipitation Wind Pressure Humidity
    00:00 -10°C° 0 mm 5 mps 738 mmHg 79%
    01:00 -10°C° 0 mm 5 mps 738 mmHg 82%
    02:00 -10°C° 0 mm 4 mps 738 mmHg 84%
    03:00 -10°C° 0 mm 4 mps 738 mmHg 86%
    04:00 -10°C° 0 mm 4 mps 737 mmHg 87%
    05:00 -10°C° 0 mm 4 mps 737 mmHg 87%
    06:00 -9°C° 0 mm 4 mps 736 mmHg 87%
    07:00 -10°C° 0.1 mm 5 mps 736 mmHg 86%
    08:00 -8°C° 0.1 mm 5 mps 735 mmHg 85%
    09:00 -8°C° 0.1 mm 5 mps 734 mmHg 85%
    10:00 -8°C° 0.5 mm 6 mps 733 mmHg 86%
    11:00 -8°C° 0.5 mm 6 mps 732 mmHg 87%
    12:00 -8°C° 0.5 mm 6 mps 731 mmHg 88%
    13:00 -6°C° 0.4 mm 6 mps 731 mmHg 87%
    14:00 -6°C° 0.4 mm 6 mps 730 mmHg 86%
    15:00 -7°C° 0.4 mm 7 mps 729 mmHg 85%
    16:00 -6°C° 0.4 mm 6 mps 729 mmHg 85%
    17:00 -6°C° 0.4 mm 6 mps 729 mmHg 84%
    18:00 -6°C° 0.4 mm 5 mps 729 mmHg 84%
    19:00 -6°C° 0.1 mm 5 mps 729 mmHg 86%
    20:00 -7°C° 0.1 mm 4 mps 728 mmHg 88%
    21:00 -6°C° 0.1 mm 3 mps 728 mmHg 89%
    22:00 -8°C° 0 mm 4 mps 729 mmHg 86%
    23:00 -10°C° 0 mm 5 mps 730 mmHg 83%

    23 November, Friday

    Time Temperature Precipitation Wind Pressure Humidity
    00:00 -11°C° 0 mm 5 mps 730 mmHg 80%
    01:00 -12°C° 0 mm 5 mps 731 mmHg 80%
    02:00 -13°C° 0 mm 5 mps 733 mmHg 80%
    03:00 -13°C° 0 mm 5 mps 734 mmHg 81%
    04:00 -14°C° 0 mm 5 mps 735 mmHg 82%
    05:00 -14°C° 0 mm 5 mps 736 mmHg 84%
    06:00 -14°C° 0 mm 4 mps 737 mmHg 86%
    07:00 -12°C° 0 mm 4 mps 738 mmHg 85%
    08:00 -12°C° 0 mm 5 mps 739 mmHg 84%
    09:00 -12°C° 0 mm 5 mps 740 mmHg 83%
    10:00 -11°C° 0.1 mm 5 mps 740 mmHg 81%
    11:00 -11°C° 0.1 mm 5 mps 741 mmHg 79%
    12:00 -10°C° 0.1 mm 5 mps 742 mmHg 77%
    13:00 -11°C° 0 mm 5 mps 742 mmHg 78%
    14:00 -10°C° 0 mm 4 mps 743 mmHg 79%
    15:00 -11°C° 0 mm 4 mps 743 mmHg 80%
    16:00 -11°C° 0 mm 4 mps 743 mmHg 81%
    17:00 -12°C° 0 mm 4 mps 744 mmHg 83%
    18:00 -12°C° 0 mm 4 mps 744 mmHg 84%
    19:00 -12°C° 0 mm 4 mps 744 mmHg 86%
    20:00 -12°C° 0 mm 4 mps 744 mmHg 87%
    21:00 -14°C° 0 mm 4 mps 744 mmHg 88%
    22:00 -12°C° 0 mm 4 mps 744 mmHg 88%
    23:00 -12°C° 0 mm 4 mps 744 mmHg 87%

    24 November, Saturday

    Time Temperature Precipitation Wind Pressure Humidity
    00:00 -12°C° 0 mm 4 mps 744 mmHg 87%
    01:00 -12°C° 0 mm 4 mps 743 mmHg 87%
    02:00 -13°C° 0 mm 5 mps 743 mmHg 88%
    03:00 -13°C° 0 mm 5 mps 742 mmHg 88%
    04:00 -12°C° 0 mm 5 mps 742 mmHg 88%
    05:00 -12°C° 0 mm 5 mps 741 mmHg 88%
    06:00 -12°C° 0 mm 6 mps 741 mmHg 88%
    07:00 -11°C° 0 mm 6 mps 740 mmHg 86%
    08:00 -11°C° 0 mm 6 mps 739 mmHg 85%
    09:00 -11°C° 0 mm 7 mps 739 mmHg 84%
    10:00 -11°C° 0.1 mm 7 mps 738 mmHg 83%
    11:00 -9°C° 0.1 mm 7 mps 738 mmHg 81%
    12:00 -8°C° 0.1 mm 7 mps 737 mmHg 80%
    13:00 -8°C° 0.1 mm 7 mps 736 mmHg 80%
    14:00 -7°C° 0.1 mm 7 mps 736 mmHg 80%
    15:00 -7°C° 0.1 mm 7 mps 736 mmHg 80%
    16:00 -7°C° 0 mm 7 mps 736 mmHg 81%
    17:00 -7°C° 0 mm 7 mps 736 mmHg 81%
    18:00 -6°C° 0 mm 7 mps 735 mmHg 82%
    19:00 -6°C° 0.1 mm 7 mps 736 mmHg 82%
    20:00 -6°C° 0.1 mm 7 mps 736 mmHg 83%
    21:00 -5°C° 0.1 mm 6 mps 736 mmHg 84%
    22:00 -5°C° 0 mm 6 mps 737 mmHg 85%
    23:00 -6°C° 0 mm 6 mps 737 mmHg 85%

    25 November, Sunday

    Time Temperature Precipitation Wind Pressure Humidity
    00:00 -6°C° 0 mm 5 mps 738 mmHg 86%
    01:00 -6°C° 0 mm 5 mps 738 mmHg 87%
    02:00 -7°C° 0 mm 5 mps 738 mmHg 88%
    03:00 -7°C° 0 mm 5 mps 739 mmHg 90%
    04:00 -8°C° 0 mm 4 mps 739 mmHg 90%
    05:00 -8°C° 0 mm 4 mps 739 mmHg 91%
    06:00 -9°C° 0 mm 4 mps 739 mmHg 92%
    07:00 -8°C° 0 mm 4 mps 740 mmHg 92%
    08:00 -8°C° 0 mm 4 mps 740 mmHg 92%
    09:00 -8°C° 0 mm 4 mps 740 mmHg 93%
    10:00 -8°C° 0 mm 4 mps 740 mmHg 91%
    11:00 -7°C° 0 mm 4 mps 741 mmHg 89%
    12:00 -7°C° 0 mm 4 mps 741 mmHg 88%
    13:00 -7°C° 0 mm 4 mps 741 mmHg 87%
    14:00 -7°C° 0 mm 4 mps 741 mmHg 87%
    15:00 -7°C° 0 mm 4 mps 741 mmHg 86%
    16:00 -6°C° 0 mm 3 mps 741 mmHg 87%
    17:00 -6°C° 0 mm 3 mps 741 mmHg 88%
    18:00 -6°C° 0 mm 3 mps 741 mmHg 89%
    19:00 -6°C° 0 mm 3 mps 741 mmHg 89%
    20:00 -6°C° 0 mm 3 mps 741 mmHg 90%
    21:00 -6°C° 0 mm 3 mps 741 mmHg 90%
    22:00 -6°C° 0 mm 2 mps 741 mmHg 92%
    23:00 -6°C° 0 mm 2 mps 742 mmHg 93%
    Show more